When you browse on this site, cookies collect data to enhance your experience and personalize the content and advertising you see.
Visit our Privacy Policy to learn more. By continuing to use the site, you agree to this use of cookies and data.
EN

Hourly Weather Celejow

Today, 5 July, Sunday

Time Temperature Precipitation Wind Pressure Humidity
00:00 +17°C° 0 mm 2 mps 746 mmHg 77%
01:00 +17°C° 0 mm 2 mps 746 mmHg 80%
02:00 +16°C° 0 mm 3 mps 746 mmHg 80%
03:00 +16°C° 0 mm 3 mps 745 mmHg 80%
04:00 +16°C° 0 mm 3 mps 745 mmHg 81%
05:00 +18°C° 0 mm 3 mps 745 mmHg 79%
06:00 +19°C° 0 mm 3 mps 746 mmHg 78%
07:00 +21°C° 0 mm 3 mps 746 mmHg 76%
08:00 +22°C° 0 mm 4 mps 746 mmHg 72%
09:00 +25°C° 0 mm 4 mps 746 mmHg 68%
10:00 +26°C° 0 mm 4 mps 746 mmHg 64%
11:00 +27°C° 0 mm 4 mps 746 mmHg 62%
12:00 +27°C° 0 mm 4 mps 745 mmHg 61%
13:00 +28°C° 0 mm 4 mps 745 mmHg 59%
14:00 +28°C° 0.1 mm 4 mps 745 mmHg 61%
15:00 +28°C° 0.1 mm 4 mps 745 mmHg 63%
16:00 +28°C° 0.1 mm 4 mps 744 mmHg 64%
17:00 +27°C° 0.1 mm 3 mps 744 mmHg 70%
18:00 +26°C° 0.1 mm 2 mps 744 mmHg 75%
19:00 +25°C° 0.1 mm 2 mps 744 mmHg 80%
20:00 +24°C° 0 mm 2 mps 744 mmHg 82%
21:00 +23°C° 0 mm 2 mps 744 mmHg 83%
22:00 +21°C° 0 mm 2 mps 744 mmHg 85%
23:00 +20°C° 0 mm 3 mps 744 mmHg 86%

Tomorrow, 6 July, Monday

Time Temperature Precipitation Wind Pressure Humidity
00:00 +20°C° 0 mm 3 mps 744 mmHg 87%
01:00 +19°C° 0 mm 3 mps 743 mmHg 88%
02:00 +19°C° 0 mm 3 mps 743 mmHg 90%
03:00 +19°C° 0 mm 2 mps 743 mmHg 92%
04:00 +19°C° 0 mm 2 mps 743 mmHg 94%
05:00 +20°C° 0 mm 2 mps 743 mmHg 90%
06:00 +23°C° 0 mm 2 mps 743 mmHg 85%
07:00 +24°C° 0 mm 2 mps 743 mmHg 81%
08:00 +25°C° 0.2 mm 2 mps 743 mmHg 79%
09:00 +25°C° 0.2 mm 2 mps 743 mmHg 77%
10:00 +26°C° 0.2 mm 2 mps 742 mmHg 75%
11:00 +26°C° 0.1 mm 3 mps 742 mmHg 70%
12:00 +27°C° 0.1 mm 3 mps 742 mmHg 66%
13:00 +28°C° 0.1 mm 4 mps 742 mmHg 62%
14:00 +27°C° 0.2 mm 4 mps 741 mmHg 66%
15:00 +26°C° 0.2 mm 5 mps 741 mmHg 70%
16:00 +23°C° 0.2 mm 5 mps 741 mmHg 73%
17:00 +22°C° 0 mm 5 mps 741 mmHg 76%
18:00 +21°C° 0 mm 4 mps 742 mmHg 78%
19:00 +20°C° 0 mm 3 mps 742 mmHg 80%
20:00 +19°C° 0 mm 3 mps 742 mmHg 80%
21:00 +18°C° 0 mm 3 mps 743 mmHg 81%
22:00 +17°C° 0 mm 3 mps 743 mmHg 81%
23:00 +17°C° 0 mm 4 mps 743 mmHg 76%

Day after tomorrow, 7 July, Tuesday

Time Temperature Precipitation Wind Pressure Humidity
00:00 +17°C° 0 mm 4 mps 744 mmHg 71%
01:00 +16°C° 0 mm 5 mps 744 mmHg 65%
02:00 +15°C° 0 mm 4 mps 744 mmHg 67%
03:00 +14°C° 0 mm 4 mps 745 mmHg 70%
04:00 +14°C° 0 mm 4 mps 745 mmHg 72%
05:00 +14°C° 0 mm 4 mps 745 mmHg 73%
06:00 +14°C° 0 mm 4 mps 745 mmHg 74%
07:00 +15°C° 0 mm 5 mps 745 mmHg 75%
08:00 +15°C° 0 mm 4 mps 746 mmHg 74%
09:00 +17°C° 0 mm 4 mps 746 mmHg 72%
10:00 +18°C° 0 mm 4 mps 746 mmHg 70%
11:00 +18°C° 0.2 mm 4 mps 746 mmHg 69%
12:00 +18°C° 0.2 mm 4 mps 746 mmHg 67%
13:00 +18°C° 0.2 mm 4 mps 746 mmHg 66%
14:00 +19°C° 0.1 mm 4 mps 746 mmHg 66%
15:00 +19°C° 0.1 mm 4 mps 746 mmHg 66%
16:00 +19°C° 0.1 mm 4 mps 746 mmHg 66%
17:00 +18°C° 0.1 mm 4 mps 746 mmHg 70%
18:00 +17°C° 0.1 mm 4 mps 746 mmHg 75%
19:00 +16°C° 0.1 mm 3 mps 746 mmHg 79%
20:00 +14°C° 0 mm 3 mps 747 mmHg 81%
21:00 +12°C° 0 mm 3 mps 747 mmHg 84%
22:00 +12°C° 0 mm 2 mps 747 mmHg 86%
23:00 +12°C° 0 mm 2 mps 747 mmHg 86%

8 July, Wednesday

Time Temperature Precipitation Wind Pressure Humidity
00:00 +10°C° 0 mm 2 mps 747 mmHg 87%
01:00 +10°C° 0 mm 2 mps 747 mmHg 88%
02:00 +9°C° 0 mm 2 mps 747 mmHg 89%
03:00 +9°C° 0 mm 2 mps 748 mmHg 90%
04:00 +9°C° 0 mm 2 mps 748 mmHg 90%
05:00 +12°C° 0 mm 2 mps 748 mmHg 85%
06:00 +13°C° 0 mm 2 mps 748 mmHg 80%
07:00 +15°C° 0 mm 2 mps 748 mmHg 74%
08:00 +16°C° 0 mm 2 mps 747 mmHg 69%
09:00 +17°C° 0 mm 2 mps 747 mmHg 64%
10:00 +18°C° 0 mm 2 mps 747 mmHg 59%
11:00 +19°C° 0 mm 2 mps 747 mmHg 58%
12:00 +19°C° 0 mm 2 mps 747 mmHg 57%
13:00 +20°C° 0 mm 2 mps 747 mmHg 56%
14:00 +20°C° 0 mm 2 mps 746 mmHg 56%
15:00 +20°C° 0 mm 2 mps 746 mmHg 57%
16:00 +20°C° 0 mm 2 mps 746 mmHg 58%
17:00 +20°C° 0 mm 1 mps 746 mmHg 62%
18:00 +20°C° 0 mm 1 mps 746 mmHg 67%
19:00 +19°C° 0 mm 1 mps 746 mmHg 71%
20:00 +18°C° 0.1 mm 1 mps 746 mmHg 75%
21:00 +16°C° 0.1 mm 2 mps 746 mmHg 79%
22:00 +14°C° 0.1 mm 3 mps 746 mmHg 83%
23:00 +15°C° 0.2 mm 2 mps 746 mmHg 86%

9 July, Thursday

Time Temperature Precipitation Wind Pressure Humidity
00:00 +14°C° 0.2 mm 2 mps 746 mmHg 89%
01:00 +14°C° 0.2 mm 2 mps 746 mmHg 92%
02:00 +13°C° 0 mm 2 mps 746 mmHg 93%
03:00 +13°C° 0 mm 2 mps 747 mmHg 94%
04:00 +12°C° 0 mm 2 mps 747 mmHg 95%
05:00 +13°C° 0 mm 2 mps 747 mmHg 91%
06:00 +14°C° 0 mm 3 mps 747 mmHg 87%
07:00 +16°C° 0 mm 3 mps 748 mmHg 83%
08:00 +17°C° 0.3 mm 3 mps 748 mmHg 81%
09:00 +18°C° 0.3 mm 3 mps 748 mmHg 78%
10:00 +19°C° 0.3 mm 4 mps 749 mmHg 76%
11:00 +20°C° 0.5 mm 4 mps 749 mmHg 74%
12:00 +20°C° 0.5 mm 4 mps 748 mmHg 72%
13:00 +21°C° 0.5 mm 4 mps 748 mmHg 70%
14:00 +21°C° 0.1 mm 4 mps 748 mmHg 69%
15:00 +21°C° 0.1 mm 4 mps 748 mmHg 67%
16:00 +21°C° 0.1 mm 4 mps 748 mmHg 66%
17:00 +20°C° 0.1 mm 3 mps 749 mmHg 72%
18:00 +19°C° 0.1 mm 3 mps 749 mmHg 77%
19:00 +18°C° 0.1 mm 2 mps 749 mmHg 82%
20:00 +17°C° 0 mm 2 mps 749 mmHg 84%
21:00 +15°C° 0 mm 2 mps 749 mmHg 85%
22:00 +14°C° 0 mm 2 mps 749 mmHg 87%
23:00 +14°C° 0 mm 2 mps 749 mmHg 88%

10 July, Friday

Time Temperature Precipitation Wind Pressure Humidity
00:00 +13°C° 0 mm 1 mps 750 mmHg 89%
01:00 +13°C° 0 mm 1 mps 750 mmHg 90%
02:00 +12°C° 0 mm 1 mps 750 mmHg 90%
03:00 +12°C° 0 mm 1 mps 749 mmHg 90%
04:00 +11°C° 0 mm 0 mps 749 mmHg 90%
05:00 +13°C° 0 mm 0 mps 750 mmHg 86%
06:00 +15°C° 0 mm 0 mps 750 mmHg 81%
07:00 +16°C° 0 mm 0 mps 750 mmHg 76%
08:00 +20°C° 0 mm 1 mps 750 mmHg 70%
09:00 +21°C° 0 mm 1 mps 750 mmHg 65%
10:00 +21°C° 0 mm 2 mps 750 mmHg 59%
11:00 +23°C° 0 mm 2 mps 749 mmHg 56%
12:00 +24°C° 0 mm 2 mps 749 mmHg 54%
13:00 +25°C° 0 mm 2 mps 749 mmHg 51%
14:00 +25°C° 0 mm 2 mps 748 mmHg 52%
15:00 +25°C° 0 mm 2 mps 748 mmHg 53%
16:00 +25°C° 0 mm 2 mps 748 mmHg 54%
17:00 +24°C° 0 mm 2 mps 748 mmHg 62%
18:00 +23°C° 0 mm 2 mps 747 mmHg 70%
19:00 +20°C° 0 mm 3 mps 747 mmHg 78%
20:00 +19°C° 0 mm 3 mps 747 mmHg 80%
21:00 +19°C° 0 mm 3 mps 747 mmHg 83%
22:00 +18°C° 0 mm 3 mps 747 mmHg 86%
23:00 +18°C° 0 mm 4 mps 747 mmHg 86%
Show more